[[{"header":{"parameterUnit":"m.s-1","parameterCategory":1,"la1":30.2991,"la2":30.254,"lo1":-89.0895,"lo2":-89.0444,"dy":0.0017,"dx":0.0017,"nx":28,"ny":28,"refTime":"2025-02-11T09:00:00:Z","depth":0,"parameterNumber":2,"parameterNumberName":"U-component_of_WINDS"},"data":[0,0,0,0,0,0,0,0,0,0,0,0,0,0,0,0,0,0,0,0,0,0,0,0,0,0,0,0,0,0,0,0,0,0,0,0,0,0,0,0,0,0,0,0,0,0,0,0,0,0,0,0,0,0,0,0,0,0,-2.7358,-2.7358,0,-2.7325,-2.7324,-2.7324,-2.7238,-2.7236,-2.7234,-2.7233,-2.7201,-2.7202,-2.7203,0,0,0,0,0,0,0,0,0,0,0,0,0,-2.7351,-2.7352,-2.7358,-2.7358,-2.7357,-2.7325,-2.7324,-2.7324,-2.7238,-2.7236,-2.7234,-2.7232,-2.7201,-2.7202,-2.7203,0,0,0,0,0,0,0,0,0,0,0,0,0,-2.734,-2.7352,-2.7358,-2.7311,-2.7306,-2.7325,-2.7324,-2.7324,-2.7239,-2.7236,-2.7233,-2.7231,-2.7201,-2.7202,-2.7203,-2.7266,0,0,-2.7207,-2.7208,0,0,0,0,0,0,0,0,-2.734,-2.734,-2.7318,-2.7314,-2.7309,-2.7282,-2.731,-2.7304,-2.7239,-2.7264,-2.7233,-2.7229,-2.7231,-2.7229,-2.7229,-2.7265,-2.7263,-2.7207,-2.7208,-2.7209,-2.7209,0,0,0,0,0,0,0,-2.7341,-2.7341,-2.7345,-2.7318,-2.7312,-2.7292,-2.7287,-2.7309,-2.7264,-2.7262,-2.7256,-2.7253,-2.7228,-2.7228,-2.7228,-2.7263,-2.7207,-2.7208,-2.7209,-2.721,-2.7349,-2.7351,0,0,0,0,0,0,-2.7349,-2.7342,-2.7346,-2.7344,-2.7318,-2.7294,-2.7289,-2.7294,-2.7263,-2.7256,-2.7255,-2.7249,-2.7227,-2.7226,-2.7226,-2.7298,-2.7209,-2.721,-2.7211,-2.7346,-2.7349,-2.7352,0,0,0,0,0,0,-2.7349,-2.735,-2.7347,-2.7341,-2.7339,-2.7297,-2.7303,-2.7295,-2.7295,-2.7258,-2.725,-2.7264,-2.7225,-2.7225,-2.7257,-2.7296,-2.721,-2.7212,-2.7342,-2.7347,-2.7351,-2.7442,0,0,0,0,0,0,-2.7349,-2.735,-2.7373,-2.7342,-2.734,-2.7378,-2.7306,-2.7296,-2.7297,-2.7289,-2.7264,-2.7257,-2.7223,-2.7255,-2.7258,-2.7296,-2.7213,-2.7339,-2.7344,-2.735,-2.7435,-2.7449,-2.7461,0,0,0,0,0,-2.7349,-2.7401,-2.7375,-2.7376,-2.7368,-2.738,-2.7379,-2.7338,-2.7301,-2.7323,-2.73,-2.7258,-2.7291,-2.7259,-2.7262,-2.7301,-2.7336,-2.7343,-2.7349,-2.743,-2.7446,-2.746,0,0,0,0,0,0,-2.7438,-2.7396,-2.7366,-2.741,-2.7399,-2.7365,-2.7393,-2.7357,-2.7357,-2.7349,-2.7299,-2.7294,-2.7334,-2.732,-2.7286,-2.736,-2.7307,-2.7314,-2.7367,-2.7383,-2.7395,-2.7397,-2.7214,0,0,0,0,0,-2.7463,-2.7475,-2.7438,-2.748,-2.7476,-2.7436,-2.744,-2.7409,-2.7396,-2.7392,-2.737,-2.736,-2.7368,-2.7375,-2.738,-2.7433,-2.7427,-2.7461,-2.7474,-2.7484,-2.7491,-2.7519,-2.7533,-2.7374,-2.7374,-2.7374,0,0,-2.7514,-2.7492,-2.7503,-2.7497,-2.7485,-2.75,-2.7432,-2.7451,-2.7462,-2.7395,-2.7423,-2.7408,-2.7393,-2.7436,-2.7454,-2.7426,-2.7534,-2.7493,-2.7501,-2.7503,-2.7527,-2.7542,-2.7555,-2.7378,-2.7378,-2.7377,0,0,-2.7614,-2.7599,-2.7632,-2.7622,-2.7604,-2.7577,-2.7585,-2.7557,-2.7544,-2.7571,-2.7521,-2.7534,-2.7549,-2.7541,-2.7539,-2.7637,-2.7599,-2.764,-2.7706,-2.7734,-2.7746,-2.7757,-2.7792,-2.7805,-2.7648,-2.7648,-2.7648,0,-2.768,-2.77,-2.7654,-2.7676,-2.7675,-2.7614,-2.7647,-2.7639,-2.7625,-2.7627,-2.7596,-2.7613,-2.7599,-2.7639,-2.7663,-2.7664,-2.7672,-2.7643,-2.7748,-2.7758,-2.7768,-2.7801,-2.7814,-2.7653,-2.7652,-2.7652,-2.7651,0,-2.7782,-2.7796,-2.7825,-2.7812,-2.7814,-2.7842,-2.7802,-2.781,-2.7779,-2.7756,-2.7785,-2.7767,-2.7767,-2.7775,-2.7745,-2.7811,-2.7794,-2.7757,-2.7702,-2.7789,-2.7819,-2.7831,-2.766,-2.7658,-2.7657,-2.7656,0,0,-2.7937,-2.7898,-2.791,-2.7903,-2.7879,-2.789,-2.7916,-2.7915,-2.7923,-2.7916,-2.7936,-2.7951,-2.7915,-2.7913,-2.7882,-2.7906,-2.7985,-2.7865,-2.7864,-2.7888,-2.8057,-2.8085,-2.81,-2.796,-2.7962,-2.7964,-2.8058,0,-2.8032,-2.8072,-2.8031,-2.808,-2.8093,-2.8035,-2.8058,-2.8046,-2.8025,-2.8034,-2.8011,-2.8022,-2.7975,-2.7973,-2.7994,-2.7971,-2.8019,-2.7964,-2.7979,-2.798,-2.7984,-2.8116,-2.8146,-2.8236,-2.8069,-2.8071,-2.8073,0,-2.8147,-2.8144,-2.8194,-2.8167,-2.8171,-2.8191,-2.8188,-2.8197,-2.8183,-2.8166,-2.8164,-2.8127,-2.8151,-2.8098,-2.813,-2.8094,-2.8098,-2.8088,-2.8091,-2.809,-2.8032,-2.8119,-2.8263,-2.8277,-2.8091,-2.8089,-2.8088,0,-2.8256,-2.8264,-2.8294,-2.829,-2.826,-2.8276,-2.8264,-2.8247,-2.825,-2.8247,-2.8248,-2.825,-2.825,-2.8252,-2.8216,-2.8181,-2.8254,-2.8198,-2.8241,-2.8242,-2.8259,-2.8258,-2.8405,-2.8262,-2.8262,-2.8262,-2.8262,0,-2.8365,-2.8398,-2.8342,-2.8361,-2.8396,-2.8351,-2.8387,-2.8369,-2.8355,-2.837,-2.8321,-2.8337,-2.8288,-2.8299,-2.8272,-2.8303,-2.8304,-2.8292,-2.8284,-2.8296,-2.8297,-2.8297,-2.829,-2.8265,-2.8265,-2.8264,-2.8263,0,-2.8492,-2.8456,-2.8485,-2.8454,-2.8447,-2.8474,-2.8448,-2.8464,-2.844,-2.846,-2.8462,-2.8425,-2.8435,-2.84,-2.8405,-2.8386,-2.8432,-2.8414,-2.8437,-2.8431,-2.8476,-2.8472,-2.8628,-2.8646,-2.8492,-2.8494,-2.8495,0,-2.8564,-2.8587,-2.8558,-2.8564,-2.8555,-2.8565,-2.8567,-2.8524,-2.8528,-2.8514,-2.8533,-2.8539,-2.8541,-2.856,-2.8534,-2.8538,-2.8519,-2.8574,-2.852,-2.8531,-2.852,-2.8519,-2.8521,-2.8585,-2.8587,-2.8588,-2.859,0,-2.8696,-2.8677,-2.8681,-2.8679,-2.8682,-2.8679,-2.8673,-2.8681,-2.8634,-2.8642,-2.8651,-2.8652,-2.8657,-2.8664,-2.8662,-2.865,-2.8613,-2.8607,-2.8617,-2.8629,-2.8641,-2.8635,-2.8467,-2.8604,-2.8602,-2.8601,-2.86,-2.86,-2.8797,-2.8815,-2.8797,-2.8803,-2.8794,-2.8789,-2.8803,-2.878,-2.8787,-2.8786,-2.876,-2.8775,-2.8761,-2.8754,-2.8747,-2.8758,-2.8733,-2.8748,-2.8752,-2.8756,-2.8764,-2.864,-2.8758,-2.8758,-2.8757,-2.8757,-2.8757,0,-2.8925,-2.8911,-2.8917,-2.8909,-2.8915,-2.8878,-2.8869,-2.8876,-2.8889,-2.8879,-2.8882,-2.8893,-2.8899,-2.8874,-2.8877,-2.8891,-2.8874,-2.8893,-2.8892,-2.889,-2.8786,-2.8777,-2.8907,-2.8907,-2.8907,-2.8907,-2.8907,-2.8907,-2.8993,-2.9022,-2.9001,-2.9025,-2.901,-2.9023,-2.9021,-2.9017,-2.9008,-2.9022,-2.9027,-2.901,-2.8994,-2.8995,-2.9,-2.8992,-2.8996,-2.9021,-2.9008,-2.8912,-2.8897,-2.8883,-2.8874,-2.9023,-2.9023,-2.911,-2.9111,-2.9112]},{"header":{"parameterUnit":"m.s-1","parameterCategory":1,"la1":30.2991,"la2":30.254,"lo1":-89.0895,"lo2":-89.0444,"dy":0.0017,"dx":0.0017,"nx":28,"ny":28,"refTime":"2025-02-11T09:00:00:Z","depth":0,"parameterNumber":3,"parameterNumberName":"V-component_of_WINDS"},"data":[0,0,0,0,0,0,0,0,0,0,0,0,0,0,0,0,0,0,0,0,0,0,0,0,0,0,0,0,0,0,0,0,0,0,0,0,0,0,0,0,0,0,0,0,0,0,0,0,0,0,0,0,0,0,0,0,0,0,-1.2398,-1.24,0,-1.2517,-1.2518,-1.2519,-1.2573,-1.2573,-1.2573,-1.2573,-1.269,-1.2693,-1.2696,0,0,0,0,0,0,0,0,0,0,0,0,0,-1.2213,-1.2216,-1.2398,-1.24,-1.2401,-1.2516,-1.2518,-1.252,-1.2573,-1.2573,-1.2573,-1.2573,-1.2689,-1.2693,-1.2696,0,0,0,0,0,0,0,0,0,0,0,0,0,-1.2308,-1.2217,-1.2398,-1.2442,-1.2447,-1.2516,-1.2518,-1.252,-1.2573,-1.2573,-1.2573,-1.2573,-1.2687,-1.2692,-1.2697,-1.273,0,0,-1.2712,-1.2714,0,0,0,0,0,0,0,0,-1.2303,-1.2315,-1.2434,-1.2439,-1.2445,-1.253,-1.2496,-1.259,-1.2573,-1.2525,-1.2573,-1.2573,-1.2636,-1.2645,-1.2668,-1.2736,-1.2741,-1.2712,-1.2715,-1.2717,-1.2718,0,0,0,0,0,0,0,-1.2296,-1.231,-1.2445,-1.2435,-1.2442,-1.2454,-1.2467,-1.2514,-1.258,-1.2529,-1.2533,-1.2547,-1.2639,-1.2663,-1.2671,-1.2742,-1.2712,-1.2716,-1.2719,-1.2721,-1.2841,-1.2841,0,0,0,0,0,0,-1.2283,-1.2304,-1.2441,-1.2448,-1.2372,-1.2457,-1.2472,-1.2503,-1.258,-1.2591,-1.2547,-1.2549,-1.2655,-1.2665,-1.2675,-1.2718,-1.2717,-1.2722,-1.2724,-1.284,-1.2841,-1.2841,0,0,0,0,0,0,-1.2279,-1.2295,-1.2436,-1.2378,-1.2397,-1.2461,-1.2494,-1.2505,-1.2529,-1.2593,-1.2605,-1.2559,-1.2655,-1.2669,-1.2716,-1.2723,-1.2724,-1.2728,-1.284,-1.284,-1.2841,-1.2805,0,0,0,0,0,0,-1.2273,-1.2293,-1.2308,-1.2378,-1.24,-1.2477,-1.2495,-1.2508,-1.2538,-1.2542,-1.2608,-1.2619,-1.2656,-1.2708,-1.2721,-1.273,-1.2732,-1.284,-1.284,-1.2841,-1.2806,-1.2804,-1.2803,0,0,0,0,0,-1.2267,-1.2292,-1.2308,-1.2324,-1.242,-1.2477,-1.2489,-1.2533,-1.2538,-1.2553,-1.2593,-1.2617,-1.272,-1.2713,-1.2727,-1.2738,-1.2839,-1.284,-1.2841,-1.2807,-1.2804,-1.2803,0,0,0,0,0,0,-1.2221,-1.2302,-1.2321,-1.2371,-1.2416,-1.2486,-1.2506,-1.253,-1.2574,-1.2576,-1.2626,-1.2641,-1.2683,-1.2715,-1.2706,-1.2773,-1.2782,-1.2785,-1.2751,-1.2749,-1.2748,-1.2739,-1.2736,0,0,0,0,0,-1.2216,-1.2258,-1.2326,-1.2363,-1.2386,-1.2441,-1.2468,-1.2498,-1.2547,-1.2566,-1.261,-1.2656,-1.2698,-1.2726,-1.2768,-1.281,-1.2825,-1.2824,-1.2823,-1.2821,-1.2824,-1.2846,-1.2847,-1.2843,-1.2843,-1.2843,0,0,-1.2208,-1.2258,-1.2281,-1.2355,-1.2395,-1.2434,-1.2457,-1.2499,-1.2529,-1.2572,-1.262,-1.2653,-1.2707,-1.2751,-1.2773,-1.2779,-1.2828,-1.2822,-1.282,-1.2824,-1.2847,-1.2847,-1.2848,-1.2843,-1.2843,-1.2843,0,0,-1.2213,-1.2255,-1.2291,-1.2329,-1.2388,-1.2425,-1.2433,-1.2499,-1.2523,-1.2572,-1.2605,-1.2639,-1.2712,-1.2749,-1.2777,-1.2793,-1.2816,-1.2805,-1.2797,-1.2819,-1.2819,-1.282,-1.2825,-1.2826,-1.2807,-1.2807,-1.2807,0,-1.2195,-1.2258,-1.2305,-1.2345,-1.2376,-1.2417,-1.2452,-1.2486,-1.2556,-1.2575,-1.2581,-1.2673,-1.2712,-1.2764,-1.2768,-1.279,-1.2799,-1.2799,-1.2816,-1.2817,-1.2818,-1.2823,-1.2825,-1.2806,-1.2806,-1.2806,-1.2806,0,-1.2232,-1.2275,-1.2296,-1.2363,-1.2396,-1.2433,-1.2484,-1.2511,-1.2537,-1.2572,-1.2619,-1.2668,-1.272,-1.2735,-1.276,-1.2791,-1.2792,-1.2806,-1.2816,-1.2816,-1.2821,-1.2824,-1.2803,-1.2804,-1.2804,-1.2805,0,0,-1.2214,-1.2305,-1.2312,-1.2342,-1.2409,-1.2443,-1.248,-1.2533,-1.2555,-1.26,-1.2632,-1.2691,-1.2704,-1.2736,-1.2765,-1.2784,-1.2792,-1.2796,-1.2798,-1.2793,-1.2827,-1.2816,-1.2818,-1.2807,-1.2808,-1.2808,-1.2822,0,-1.2228,-1.2299,-1.2341,-1.2394,-1.2434,-1.2472,-1.2505,-1.2548,-1.2581,-1.2618,-1.2653,-1.2695,-1.2709,-1.2728,-1.2749,-1.2787,-1.28,-1.2787,-1.2836,-1.2837,-1.2822,-1.2822,-1.2811,-1.2822,-1.2825,-1.2826,-1.2826,0,-1.2255,-1.2301,-1.2358,-1.2419,-1.2437,-1.2466,-1.2517,-1.2552,-1.26,-1.2623,-1.2657,-1.2687,-1.2725,-1.2731,-1.2784,-1.2774,-1.2796,-1.2818,-1.2819,-1.2826,-1.2832,-1.2828,-1.2827,-1.2828,-1.283,-1.283,-1.2829,0,-1.2235,-1.231,-1.2354,-1.2379,-1.2452,-1.2471,-1.2501,-1.2551,-1.2579,-1.2622,-1.264,-1.2687,-1.2712,-1.2747,-1.2787,-1.2788,-1.2835,-1.2845,-1.2854,-1.2853,-1.2863,-1.2862,-1.2865,-1.2876,-1.2876,-1.2876,-1.2876,0,-1.2247,-1.228,-1.2346,-1.2373,-1.2411,-1.2457,-1.2493,-1.2526,-1.2569,-1.2602,-1.2637,-1.2666,-1.2717,-1.2752,-1.2783,-1.2822,-1.2833,-1.2851,-1.2859,-1.2848,-1.2846,-1.2864,-1.2864,-1.2877,-1.2877,-1.2877,-1.2877,0,-1.2231,-1.2277,-1.2328,-1.2392,-1.2409,-1.2434,-1.2488,-1.2514,-1.2548,-1.2589,-1.2601,-1.2654,-1.2697,-1.274,-1.2798,-1.2818,-1.2856,-1.2867,-1.284,-1.2844,-1.2851,-1.2849,-1.2866,-1.287,-1.2878,-1.2878,-1.2878,0,-1.2236,-1.2263,-1.233,-1.2355,-1.2386,-1.2425,-1.2454,-1.25,-1.2528,-1.2585,-1.2604,-1.2649,-1.2689,-1.2754,-1.2797,-1.284,-1.2853,-1.2855,-1.2859,-1.2847,-1.2852,-1.285,-1.2852,-1.2854,-1.2854,-1.2853,-1.2853,0,-1.2239,-1.226,-1.2302,-1.2351,-1.2385,-1.2425,-1.2466,-1.2484,-1.2537,-1.2567,-1.2612,-1.2642,-1.27,-1.2744,-1.2793,-1.2822,-1.2846,-1.2851,-1.2856,-1.2845,-1.2828,-1.2837,-1.2836,-1.2851,-1.2851,-1.2851,-1.2851,-1.2852,-1.2235,-1.226,-1.2311,-1.2355,-1.2391,-1.2428,-1.2456,-1.2493,-1.2532,-1.2584,-1.2608,-1.2653,-1.2698,-1.2766,-1.2794,-1.2829,-1.2835,-1.2841,-1.2843,-1.2844,-1.2841,-1.2822,-1.2837,-1.2837,-1.2838,-1.2838,-1.2838,0,-1.2239,-1.2274,-1.2314,-1.2371,-1.2405,-1.2426,-1.2472,-1.2498,-1.2538,-1.2579,-1.2617,-1.2667,-1.2709,-1.2754,-1.2799,-1.2817,-1.2829,-1.2827,-1.2827,-1.2833,-1.2833,-1.2825,-1.2817,-1.2817,-1.2817,-1.2817,-1.2817,-1.2817,-1.2246,-1.2289,-1.2316,-1.2376,-1.241,-1.2455,-1.2479,-1.2513,-1.2546,-1.2601,-1.2637,-1.2667,-1.2709,-1.2757,-1.2796,-1.2808,-1.2822,-1.2817,-1.2832,-1.2832,-1.2833,-1.2835,-1.2827,-1.282,-1.282,-1.2829,-1.2829,-1.2829]}]]